Location: Gaast
(52.9002°N, 5.8891°E)
Time: 08:56:29
(UTC+00:00)

USA 281 - Pass Details

Date: 18 November 2025
Orbit: 1079 x 1080 km, 106.0° (Epoch: 08 December)

Event Time Altitude Azimuth Distance (km) Brightness Sun altitude
Exits shadow 19:58:24 41° 258° (WSW) 1,514 4.2 -38.6°
Drops below altitude 10° 20:04:20 10° 322° (NW) 2,931 6.0 -39.5°
Sets 20:07:02 0° 330° (NNW) 3,891 6.7 -39.9°
